owner,sensor,date,latitude,longitude,vertical_datum,direction_of_sea_water_velocity,sea_water_speed,upward_sea_water_velocity,qcFlag 
TABS,ioos:station:wmo:42044:1,2002-11-01T00:00:00Z,26.1914,-97.0507,2.0,190.9397706,41.31076373,-99999.0,'11111222,11111222,99999999' 
TABS,ioos:station:wmo:42044:1,2002-11-01T00:30:00Z,26.1914,-97.0507,2.0,193.4444567,37.11720491,-99999.0,'11111222,11111222,99999999' 
TABS,ioos:station:wmo:42044:1,2002-11-01T01:00:00Z,26.1914,-97.0507,2.0,190.9046503,38.00629553,-99999.0,'11111222,11111222,99999999' 
TABS,ioos:station:wmo:42044:1,2002-11-01T01:30:00Z,26.1914,-97.0507,2.0,188.7237598,39.2946205,-99999.0,'11111222,11111222,99999999' 
TABS,ioos:station:wmo:42044:1,2002-11-01T02:00:00Z,26.1914,-97.0507,2.0,188.3921937,37.06692596,-99999.0,'11111222,11111222,99999999' 
TABS,ioos:station:wmo:42044:1,2002-11-01T02:30:00Z,26.1914,-97.0507,2.0,189.9696909,34.88683419,-99999.0,'11111222,11111222,99999999' 
TABS,ioos:station:wmo:42044:1,2002-11-01T03:00:00Z,26.1914,-97.0507,2.0,198.7605303,38.36853529,-99999.0,'11111222,11111222,99999999' 
TABS,ioos:station:wmo:42044:1,2002-11-01T03:30:00Z,26.1914,-97.0507,2.0,193.6375519,39.06130694,-99999.0,'11111222,11111222,99999999' 
TABS,ioos:station:wmo:42044:1,2002-11-01T04:00:00Z,26.1914,-97.0507,2.0,187.5056829,49.07046566,-99999.0,'11111222,11111222,99999999' 
TABS,ioos:station:wmo:42044:1,2002-11-01T04:30:00Z,26.1914,-97.0507,2.0,185.2420928,42.24670993,-99999.0,'11111222,11111222,99999999' 
TABS,ioos:station:wmo:42044:1,2002-11-01T05:00:00Z,26.1914,-97.0507,2.0,192.9248016,38.26961719,-99999.0,'11111222,11111222,99999999' 
TABS,ioos:station:wmo:42044:1,2002-11-01T05:30:00Z,26.1914,-97.0507,2.0,187.4549467,36.37751091,-99999.0,'11111222,11111222,99999999' 
TABS,ioos:station:wmo:42044:1,2002-11-01T06:00:00Z,26.1914,-97.0507,2.0,187.2309905,34.79676422,-99999.0,'11111222,11111222,99999999' 
TABS,ioos:station:wmo:42044:1,2002-11-01T06:30:00Z,26.1914,-97.0507,2.0,197.8551637,36.26685539,-99999.0,'11111222,11111222,99999999' 
TABS,ioos:station:wmo:42044:1,2002-11-01T07:00:00Z,26.1914,-97.0507,2.0,191.3263136,33.80846196,-99999.0,'11111222,11111222,99999999' 
TABS,ioos:station:wmo:42044:1,2002-11-01T07:30:00Z,26.1914,-97.0507,2.0,192.2002297,32.17673849,-99999.0,'11111222,11111222,99999999' 
TABS,ioos:station:wmo:42044:1,2002-11-01T08:00:00Z,26.1914,-97.0507,2.0,192.4702221,33.0190021,-99999.0,'11111222,11111222,99999999' 
TABS,ioos:station:wmo:42044:1,2002-11-01T08:30:00Z,26.1914,-97.0507,2.0,201.0181058,34.37727447,-99999.0,'11111222,11111222,99999999' 
TABS,ioos:station:wmo:42044:1,2002-11-01T09:00:00Z,26.1914,-97.0507,2.0,191.9684968,29.84888775,-99999.0,'11111222,11111222,99999999' 
TABS,ioos:station:wmo:42044:1,2002-11-01T09:30:00Z,26.1914,-97.0507,2.0,192.4556753,30.69243066,-99999.0,'11111222,11111222,99999999' 
TABS,ioos:station:wmo:42044:1,2002-11-01T10:00:00Z,26.1914,-97.0507,2.0,187.3249755,26.98020015,-99999.0,'11111222,11111222,99999999' 
TABS,ioos:station:wmo:42044:1,2002-11-01T10:30:00Z,26.1914,-97.0507,2.0,189.9727578,26.56135539,-99999.0,'11111222,11111222,99999999' 
TABS,ioos:station:wmo:42044:1,2002-11-01T11:00:00Z,26.1914,-97.0507,2.0,190.5055389,26.27038256,-99999.0,'11111222,11111222,99999999' 
TABS,ioos:station:wmo:42044:1,2002-11-01T11:30:00Z,26.1914,-97.0507,2.0,193.1481612,24.57423447,-99999.0,'11111222,11111222,99999999' 
TABS,ioos:station:wmo:42044:1,2002-11-01T12:00:00Z,26.1914,-97.0507,2.0,187.3928634,28.36581393,-99999.0,'11111222,11111222,99999999' 
TABS,ioos:station:wmo:42044:1,2002-11-01T12:30:00Z,26.1914,-97.0507,2.0,182.7757671,19.20253369,-99999.0,'11111222,11111222,99999999' 
TABS,ioos:station:wmo:42044:1,2002-11-01T13:00:00Z,26.1914,-97.0507,2.0,188.5398586,24.30953928,-99999.0,'11111222,11111222,99999999' 
TABS,ioos:station:wmo:42044:1,2002-11-01T13:30:00Z,26.1914,-97.0507,2.0,182.0273003,26.28645659,-99999.0,'11111222,11111222,99999999' 
TABS,ioos:station:wmo:42044:1,2002-11-01T14:00:00Z,26.1914,-97.0507,2.0,188.9861902,23.751541,-99999.0,'11111222,11111222,99999999' 
TABS,ioos:station:wmo:42044:1,2002-11-01T14:30:00Z,26.1914,-97.0507,2.0,198.727658,21.64607355,-99999.0,'11111222,11111222,99999999' 
TABS,ioos:station:wmo:42044:1,2002-11-01T15:00:00Z,26.1914,-97.0507,2.0,187.9965093,25.51813865,-99999.0,'11111222,11111222,99999999' 
TABS,ioos:station:wmo:42044:1,2002-11-01T15:30:00Z,26.1914,-97.0507,2.0,194.3527663,24.56680891,-99999.0,'11111222,11111222,99999999' 
TABS,ioos:station:wmo:42044:1,2002-11-01T16:00:00Z,26.1914,-97.0507,2.0,186.4867203,26.73114289,-99999.0,'11111222,11111222,99999999' 
TABS,ioos:station:wmo:42044:1,2002-11-01T16:30:00Z,26.1914,-97.0507,2.0,191.7960973,23.33277737,-99999.0,'11111222,11111222,99999999' 
TABS,ioos:station:wmo:42044:1,2002-11-01T17:00:00Z,26.1914,-97.0507,2.0,184.2269983,25.36901457,-99999.0,'11111222,11111222,99999999' 
TABS,ioos:station:wmo:42044:1,2002-11-01T17:30:00Z,26.1914,-97.0507,2.0,187.4020831,27.16640572,-99999.0,'11111222,11111222,99999999' 
TABS,ioos:station:wmo:42044:1,2002-11-01T18:00:00Z,26.1914,-97.0507,2.0,179.901208,29.06004301,-99999.0,'11111222,11111222,99999999' 
TABS,ioos:station:wmo:42044:1,2002-11-01T18:30:00Z,26.1914,-97.0507,2.0,184.5372369,28.8203279,-99999.0,'11111222,11111222,99999999' 
TABS,ioos:station:wmo:42044:1,2002-11-01T19:00:00Z,26.1914,-97.0507,2.0,186.0958193,30.3214594,-99999.0,'11111222,11111222,99999999' 
TABS,ioos:station:wmo:42044:1,2002-11-01T19:30:00Z,26.1914,-97.0507,2.0,184.387232,31.24155246,-99999.0,'11111222,11111222,99999999' 
TABS,ioos:station:wmo:42044:1,2002-11-01T20:00:00Z,26.1914,-97.0507,2.0,187.3001149,29.58986482,-99999.0,'11111222,11111222,99999999' 
TABS,ioos:station:wmo:42044:1,2002-11-01T20:30:00Z,26.1914,-97.0507,2.0,191.9306237,30.76458353,-99999.0,'11111222,11111222,99999999' 
TABS,ioos:station:wmo:42044:1,2002-11-01T21:00:00Z,26.1914,-97.0507,2.0,186.581018,31.23583359,-99999.0,'11111222,11111222,99999999' 
TABS,ioos:station:wmo:42044:1,2002-11-01T21:30:00Z,26.1914,-97.0507,2.0,192.519965,36.11892163,-99999.0,'11111222,11111222,99999999' 
TABS,ioos:station:wmo:42044:1,2002-11-01T22:00:00Z,26.1914,-97.0507,2.0,190.3628493,36.07852824,-99999.0,'11111222,11111222,99999999' 
TABS,ioos:station:wmo:42044:1,2002-11-01T22:30:00Z,26.1914,-97.0507,2.0,195.9869601,35.76320595,-99999.0,'11111222,11111222,99999999' 
TABS,ioos:station:wmo:42044:1,2002-11-01T23:00:00Z,26.1914,-97.0507,2.0,194.0648998,33.65909832,-99999.0,'11111222,11111222,99999999' 
TABS,ioos:station:wmo:42044:1,2002-11-01T23:30:00Z,26.1914,-97.0507,2.0,194.7854757,35.97111063,-99999.0,'11111222,11111222,99999999' 
TABS,ioos:station:wmo:42044:1,2002-11-02T00:00:00Z,26.1914,-97.0507,2.0,192.5966593,38.33272362,-99999.0,'11111222,11111222,99999999' 
TABS,ioos:station:wmo:42044:1,2002-11-02T00:30:00Z,26.1914,-97.0507,2.0,201.0107681,40.38515074,-99999.0,'11111222,11111222,99999999' 
TABS,ioos:station:wmo:42044:1,2002-11-02T01:00:00Z,26.1914,-97.0507,2.0,199.4822401,41.16708637,-99999.0,'11111222,11111222,99999999' 
TABS,ioos:station:wmo:42044:1,2002-11-02T01:30:00Z,26.1914,-97.0507,2.0,195.5403132,41.01963554,-99999.0,'11111222,11111222,99999999' 
TABS,ioos:station:wmo:42044:1,2002-11-02T02:00:00Z,26.1914,-97.0507,2.0,191.5516201,38.55089234,-99999.0,'11111222,11111222,99999999' 
TABS,ioos:station:wmo:42044:1,2002-11-02T02:30:00Z,26.1914,-97.0507,2.0,189.9605249,40.0639052,-99999.0,'11111222,11111222,99999999' 
TABS,ioos:station:wmo:42044:1,2002-11-02T03:00:00Z,26.1914,-97.0507,2.0,185.5296311,39.74496823,-99999.0,'11111222,11111222,99999999' 
TABS,ioos:station:wmo:42044:1,2002-11-02T03:30:00Z,26.1914,-97.0507,2.0,183.1732719,40.10149623,-99999.0,'11111222,11111222,99999999' 
TABS,ioos:station:wmo:42044:1,2002-11-02T04:00:00Z,26.1914,-97.0507,2.0,179.375546,37.63223352,-99999.0,'11111222,11111222,99999999' 
TABS,ioos:station:wmo:42044:1,2002-11-02T04:30:00Z,26.1914,-97.0507,2.0,178.5485373,41.85342519,-99999.0,'11111222,11111222,99999999' 
TABS,ioos:station:wmo:42044:1,2002-11-02T05:00:00Z,26.1914,-97.0507,2.0,180.6181144,40.77237423,-99999.0,'11111222,11111222,99999999' 
TABS,ioos:station:wmo:42044:1,2002-11-02T05:30:00Z,26.1914,-97.0507,2.0,181.4478566,43.92402759,-99999.0,'11111222,11111222,99999999' 
TABS,ioos:station:wmo:42044:1,2002-11-02T06:00:00Z,26.1914,-97.0507,2.0,182.0490934,41.94682825,-99999.0,'11111222,11111222,99999999' 
TABS,ioos:station:wmo:42044:1,2002-11-02T06:30:00Z,26.1914,-97.0507,2.0,185.3629025,41.51172485,-99999.0,'11111222,11111222,99999999' 
TABS,ioos:station:wmo:42044:1,2002-11-02T07:00:00Z,26.1914,-97.0507,2.0,185.1566916,38.71671474,-99999.0,'11111222,11111222,99999999' 
TABS,ioos:station:wmo:42044:1,2002-11-02T07:30:00Z,26.1914,-97.0507,2.0,179.2511818,35.97307048,-99999.0,'11111222,11111222,99999999' 
TABS,ioos:station:wmo:42044:1,2002-11-02T08:00:00Z,26.1914,-97.0507,2.0,189.5858638,39.57257257,-99999.0,'11111222,11111222,99999999' 
TABS,ioos:station:wmo:42044:1,2002-11-02T08:30:00Z,26.1914,-97.0507,2.0,186.2487665,40.23909045,-99999.0,'11111222,11111222,99999999' 
TABS,ioos:station:wmo:42044:1,2002-11-02T09:00:00Z,26.1914,-97.0507,2.0,186.0476945,38.53447807,-99999.0,'11111222,11111222,99999999' 
TABS,ioos:station:wmo:42044:1,2002-11-02T09:30:00Z,26.1914,-97.0507,2.0,190.2324889,37.65899229,-99999.0,'11111222,11111222,99999999' 
TABS,ioos:station:wmo:42044:1,2002-11-02T10:00:00Z,26.1914,-97.0507,2.0,186.4987359,37.4607261,-99999.0,'11111222,11111222,99999999' 
TABS,ioos:station:wmo:42044:1,2002-11-02T10:30:00Z,26.1914,-97.0507,2.0,185.9254251,40.2953099,-99999.0,'11111222,11111222,99999999' 
TABS,ioos:station:wmo:42044:1,2002-11-02T11:00:00Z,26.1914,-97.0507,2.0,186.7336407,41.78827587,-99999.0,'11111222,11111222,99999999' 
TABS,ioos:station:wmo:42044:1,2002-11-02T11:30:00Z,26.1914,-97.0507,2.0,188.6713222,41.45386472,-99999.0,'11111222,11111222,99999999' 
TABS,ioos:station:wmo:42044:1,2002-11-02T12:00:00Z,26.1914,-97.0507,2.0,191.0523145,40.16498973,-99999.0,'11111222,11111222,99999999' 
TABS,ioos:station:wmo:42044:1,2002-11-02T12:30:00Z,26.1914,-97.0507,2.0,189.5458994,40.46027805,-99999.0,'11111222,11111222,99999999' 
TABS,ioos:station:wmo:42044:1,2002-11-02T13:00:00Z,26.1914,-97.0507,2.0,194.5670054,38.2082779,-99999.0,'11111222,11111222,99999999' 
TABS,ioos:station:wmo:42044:1,2002-11-02T13:30:00Z,26.1914,-97.0507,2.0,194.9508723,39.34186828,-99999.0,'11111222,11111222,99999999' 
TABS,ioos:station:wmo:42044:1,2002-11-02T14:00:00Z,26.1914,-97.0507,2.0,197.6679788,41.11961576,-99999.0,'11111222,11111222,99999999' 
TABS,ioos:station:wmo:42044:1,2002-11-02T14:30:00Z,26.1914,-97.0507,2.0,200.5424382,35.16618404,-99999.0,'11111222,11111222,99999999' 
TABS,ioos:station:wmo:42044:1,2002-11-02T15:00:00Z,26.1914,-97.0507,2.0,201.6528907,35.88203032,-99999.0,'11111222,11111222,99999999' 
TABS,ioos:station:wmo:42044:1,2002-11-02T15:30:00Z,26.1914,-97.0507,2.0,198.752612,33.62501599,-99999.0,'11111222,11111222,99999999' 
TABS,ioos:station:wmo:42044:1,2002-11-02T16:00:00Z,26.1914,-97.0507,2.0,214.5925376,30.10176905,-99999.0,'11111222,11111222,99999999' 
TABS,ioos:station:wmo:42044:1,2002-11-02T16:30:00Z,26.1914,-97.0507,2.0,212.7283624,31.40599943,-99999.0,'11111222,11111222,99999999' 
TABS,ioos:station:wmo:42044:1,2002-11-02T17:00:00Z,26.1914,-97.0507,2.0,203.6029368,33.84113769,-99999.0,'11111222,11111222,99999999' 
TABS,ioos:station:wmo:42044:1,2002-11-02T17:30:00Z,26.1914,-97.0507,2.0,202.951725,29.59280487,-99999.0,'11111222,11111222,99999999' 
TABS,ioos:station:wmo:42044:1,2002-11-02T18:00:00Z,26.1914,-97.0507,2.0,189.662862,30.02601539,-99999.0,'11111222,11111222,99999999' 
TABS,ioos:station:wmo:42044:1,2002-11-02T18:30:00Z,26.1914,-97.0507,2.0,173.0120622,29.5091884,-99999.0,'11111222,11111222,99999999' 
TABS,ioos:station:wmo:42044:1,2002-11-02T19:00:00Z,26.1914,-97.0507,2.0,199.4115653,46.18545334,-99999.0,'11111222,11111222,99999999' 
TABS,ioos:station:wmo:42044:1,2002-11-02T19:30:00Z,26.1914,-97.0507,2.0,197.4968432,44.43595391,-99999.0,'11111222,11111222,99999999' 
TABS,ioos:station:wmo:42044:1,2002-11-02T20:00:00Z,26.1914,-97.0507,2.0,197.7760661,47.59226093,-99999.0,'11111222,11111222,99999999' 
TABS,ioos:station:wmo:42044:1,2002-11-02T20:30:00Z,26.1914,-97.0507,2.0,195.4873142,49.50770142,-99999.0,'11111222,11111222,99999999' 
TABS,ioos:station:wmo:42044:1,2002-11-02T21:00:00Z,26.1914,-97.0507,2.0,196.4389611,46.21942557,-99999.0,'11111222,11111222,99999999' 
TABS,ioos:station:wmo:42044:1,2002-11-02T21:30:00Z,26.1914,-97.0507,2.0,194.3985433,42.54645109,-99999.0,'11111222,11111222,99999999' 
TABS,ioos:station:wmo:42044:1,2002-11-02T22:00:00Z,26.1914,-97.0507,2.0,195.1179423,41.1025644,-99999.0,'11111222,11111222,99999999' 
TABS,ioos:station:wmo:42044:1,2002-11-02T22:30:00Z,26.1914,-97.0507,2.0,194.460119,43.25013757,-99999.0,'11111222,11111222,99999999' 
TABS,ioos:station:wmo:42044:1,2002-11-02T23:00:00Z,26.1914,-97.0507,2.0,192.9085685,41.53984232,-99999.0,'11111222,11111222,99999999' 
TABS,ioos:station:wmo:42044:1,2002-11-02T23:30:00Z,26.1914,-97.0507,2.0,195.0042851,43.91734623,-99999.0,'11111222,11111222,99999999' 
TABS,ioos:station:wmo:42044:1,2002-11-03T00:00:00Z,26.1914,-97.0507,2.0,193.6997284,38.84517473,-99999.0,'11111222,11111222,99999999' 
TABS,ioos:station:wmo:42044:1,2002-11-03T00:30:00Z,26.1914,-97.0507,2.0,182.8774694,37.44722153,-99999.0,'11111222,11111222,99999999' 
TABS,ioos:station:wmo:42044:1,2002-11-03T01:00:00Z,26.1914,-97.0507,2.0,183.4305196,35.59378878,-99999.0,'11111222,11111222,99999999' 
TABS,ioos:station:wmo:42044:1,2002-11-03T01:30:00Z,26.1914,-97.0507,2.0,189.8987241,32.57496124,-99999.0,'11111222,11111222,99999999' 
TABS,ioos:station:wmo:42044:1,2002-11-03T02:00:00Z,26.1914,-97.0507,2.0,189.6083449,36.06596734,-99999.0,'11111222,11111222,99999999' 
TABS,ioos:station:wmo:42044:1,2002-11-03T02:30:00Z,26.1914,-97.0507,2.0,184.1561736,35.1825326,-99999.0,'11111222,11111222,99999999' 
TABS,ioos:station:wmo:42044:1,2002-11-03T03:00:00Z,26.1914,-97.0507,2.0,184.3001619,33.07311295,-99999.0,'11111222,11111222,99999999' 
TABS,ioos:station:wmo:42044:1,2002-11-03T03:30:00Z,26.1914,-97.0507,2.0,181.147462,35.9472113,-99999.0,'11111222,11111222,99999999' 
TABS,ioos:station:wmo:42044:1,2002-11-03T04:00:00Z,26.1914,-97.0507,2.0,184.9822916,31.08747175,-99999.0,'11111222,11111222,99999999' 
TABS,ioos:station:wmo:42044:1,2002-11-03T04:30:00Z,26.1914,-97.0507,2.0,182.036472,35.17221915,-99999.0,'11111222,11111222,99999999' 
TABS,ioos:station:wmo:42044:1,2002-11-03T05:00:00Z,26.1914,-97.0507,2.0,183.7770864,36.27881062,-99999.0,'11111222,11111222,99999999' 
TABS,ioos:station:wmo:42044:1,2002-11-03T05:30:00Z,26.1914,-97.0507,2.0,179.4012001,40.20219397,-99999.0,'11111222,11111222,99999999' 
TABS,ioos:station:wmo:42044:1,2002-11-03T06:00:00Z,26.1914,-97.0507,2.0,172.4070168,40.86832637,-99999.0,'11111222,11111222,99999999' 
TABS,ioos:station:wmo:42044:1,2002-11-03T06:30:00Z,26.1914,-97.0507,2.0,180.1309306,43.69011444,-99999.0,'11111222,11111222,99999999' 
TABS,ioos:station:wmo:42044:1,2002-11-03T07:00:00Z,26.1914,-97.0507,2.0,175.4779533,47.81884357,-99999.0,'11111222,11111222,99999999' 
TABS,ioos:station:wmo:42044:1,2002-11-03T07:30:00Z,26.1914,-97.0507,2.0,177.6998973,46.84773741,-99999.0,'11111222,11111222,99999999' 
TABS,ioos:station:wmo:42044:1,2002-11-03T08:00:00Z,26.1914,-97.0507,2.0,173.8439714,50.45090386,-99999.0,'11111222,11111222,99999999' 
TABS,ioos:station:wmo:42044:1,2002-11-03T08:30:00Z,26.1914,-97.0507,2.0,176.2741701,47.400173,-99999.0,'11111222,11111222,99999999' 
TABS,ioos:station:wmo:42044:1,2002-11-03T09:00:00Z,26.1914,-97.0507,2.0,176.0937371,44.33298208,-99999.0,'11111222,11111222,99999999' 
TABS,ioos:station:wmo:42044:1,2002-11-03T09:30:00Z,26.1914,-97.0507,2.0,180.2121421,43.1702965,-99999.0,'11111222,11111222,99999999' 
TABS,ioos:station:wmo:42044:1,2002-11-03T10:00:00Z,26.1914,-97.0507,2.0,175.7545372,42.95786308,-99999.0,'11111222,11111222,99999999' 
TABS,ioos:station:wmo:42044:1,2002-11-03T10:30:00Z,26.1914,-97.0507,2.0,176.7663134,50.35015889,-99999.0,'11111222,11111222,99999999' 
TABS,ioos:station:wmo:42044:1,2002-11-03T11:00:00Z,26.1914,-97.0507,2.0,185.5878456,52.57987543,-99999.0,'11111222,11111222,99999999' 
TABS,ioos:station:wmo:42044:1,2002-11-03T11:30:00Z,26.1914,-97.0507,2.0,177.3163912,48.27293237,-99999.0,'11111222,11111222,99999999' 
TABS,ioos:station:wmo:42044:1,2002-11-03T12:00:00Z,26.1914,-97.0507,2.0,179.4525378,51.3023401,-99999.0,'11111222,11111222,99999999' 
TABS,ioos:station:wmo:42044:1,2002-11-03T12:30:00Z,26.1914,-97.0507,2.0,178.1936668,50.76522038,-99999.0,'11111222,11111222,99999999' 
TABS,ioos:station:wmo:42044:1,2002-11-03T13:00:00Z,26.1914,-97.0507,2.0,178.8085138,48.5805002,-99999.0,'11111222,11111222,99999999' 
TABS,ioos:station:wmo:42044:1,2002-11-03T13:30:00Z,26.1914,-97.0507,2.0,179.6799117,46.57072578,-99999.0,'11111222,11111222,99999999' 
TABS,ioos:station:wmo:42044:1,2002-11-03T14:00:00Z,26.1914,-97.0507,2.0,176.3632937,51.08285427,-99999.0,'11111222,11111222,99999999' 
TABS,ioos:station:wmo:42044:1,2002-11-03T14:30:00Z,26.1914,-97.0507,2.0,184.5303409,55.32286507,-99999.0,'11111222,11111222,99999999' 
TABS,ioos:station:wmo:42044:1,2002-11-03T15:00:00Z,26.1914,-97.0507,2.0,183.6897704,52.82952205,-99999.0,'11111222,11111222,99999999' 
TABS,ioos:station:wmo:42044:1,2002-11-03T15:30:00Z,26.1914,-97.0507,2.0,184.0688197,46.78793969,-99999.0,'11111222,11111222,99999999' 
TABS,ioos:station:wmo:42044:1,2002-11-03T16:00:00Z,26.1914,-97.0507,2.0,185.6580804,43.61249821,-99999.0,'11111222,11111222,99999999' 
TABS,ioos:station:wmo:42044:1,2002-11-03T16:30:00Z,26.1914,-97.0507,2.0,182.6042628,40.71205473,-99999.0,'11111222,11111222,99999999' 
TABS,ioos:station:wmo:42044:1,2002-11-03T17:00:00Z,26.1914,-97.0507,2.0,189.5682417,39.0431825,-99999.0,'11111222,11111222,99999999' 
TABS,ioos:station:wmo:42044:1,2002-11-03T17:30:00Z,26.1914,-97.0507,2.0,197.0530644,34.09926685,-99999.0,'11111222,11111222,99999999' 
TABS,ioos:station:wmo:42044:1,2002-11-03T18:00:00Z,26.1914,-97.0507,2.0,213.9124286,27.83506601,-99999.0,'11111222,11111222,99999999' 
TABS,ioos:station:wmo:42044:1,2002-11-03T18:30:00Z,26.1914,-97.0507,2.0,209.4598083,27.44922585,-99999.0,'11111222,11111222,99999999' 
TABS,ioos:station:wmo:42044:1,2002-11-03T19:00:00Z,26.1914,-97.0507,2.0,212.1357994,21.37491287,-99999.0,'11111222,11111222,99999999' 
TABS,ioos:station:wmo:42044:1,2002-11-03T19:30:00Z,26.1914,-97.0507,2.0,211.7375544,19.29535177,-99999.0,'11111222,11111222,99999999' 
TABS,ioos:station:wmo:42044:1,2002-11-03T20:00:00Z,26.1914,-97.0507,2.0,209.9533277,16.34292507,-99999.0,'11111222,11111222,99999999' 
TABS,ioos:station:wmo:42044:1,2002-11-03T20:30:00Z,26.1914,-97.0507,2.0,201.0641331,15.30256188,-99999.0,'11111222,11111222,99999999' 
TABS,ioos:station:wmo:42044:1,2002-11-03T21:00:00Z,26.1914,-97.0507,2.0,184.0771039,14.76737621,-99999.0,'11111222,11111222,99999999' 
TABS,ioos:station:wmo:42044:1,2002-11-03T21:30:00Z,26.1914,-97.0507,2.0,186.7761295,16.10248739,-99999.0,'11111222,11111222,99999999' 
TABS,ioos:station:wmo:42044:1,2002-11-03T22:00:00Z,26.1914,-97.0507,2.0,186.5226726,31.51400482,-99999.0,'11111222,11111222,99999999' 
TABS,ioos:station:wmo:42044:1,2002-11-03T22:30:00Z,26.1914,-97.0507,2.0,199.1013016,30.98609366,-99999.0,'11111222,11111222,99999999' 
TABS,ioos:station:wmo:42044:1,2002-11-03T23:00:00Z,26.1914,-97.0507,2.0,200.8215753,32.04269964,-99999.0,'11111222,11111222,99999999' 
TABS,ioos:station:wmo:42044:1,2002-11-03T23:30:00Z,26.1914,-97.0507,2.0,200.7008386,33.74892295,-99999.0,'11111222,11111222,99999999' 
TABS,ioos:station:wmo:42044:1,2002-11-04T00:00:00Z,26.1914,-97.0507,2.0,203.3340717,34.91579156,-99999.0,'11111222,11111222,99999999' 
TABS,ioos:station:wmo:42044:1,2002-11-04T00:30:00Z,26.1914,-97.0507,2.0,203.823238,35.9971735,-99999.0,'11111222,11111222,99999999' 
TABS,ioos:station:wmo:42044:1,2002-11-04T01:00:00Z,26.1914,-97.0507,2.0,204.0766211,32.03728141,-99999.0,'11111222,11111222,99999999' 
TABS,ioos:station:wmo:42044:1,2002-11-04T01:30:00Z,26.1914,-97.0507,2.0,197.562638,36.98395868,-99999.0,'11111222,11111222,99999999' 
TABS,ioos:station:wmo:42044:1,2002-11-04T02:00:00Z,26.1914,-97.0507,2.0,204.8253153,30.93907723,-99999.0,'11111222,11111222,99999999' 
TABS,ioos:station:wmo:42044:1,2002-11-04T02:30:00Z,26.1914,-97.0507,2.0,206.7918407,16.92716751,-99999.0,'11111222,11111222,99999999' 
TABS,ioos:station:wmo:42044:1,2002-11-04T03:00:00Z,26.1914,-97.0507,2.0,203.511654,13.68627415,-99999.0,'11111222,11111222,99999999' 
TABS,ioos:station:wmo:42044:1,2002-11-04T03:30:00Z,26.1914,-97.0507,2.0,200.9724536,11.42702936,-99999.0,'11111222,11111222,99999999' 
TABS,ioos:station:wmo:42044:1,2002-11-04T04:00:00Z,26.1914,-97.0507,2.0,202.3198102,8.820889978,-99999.0,'11133222,11111222,99999999' 
TABS,ioos:station:wmo:42044:1,2002-11-04T04:30:00Z,26.1914,-97.0507,2.0,166.0657556,5.44008272,-99999.0,'11133222,11111222,99999999' 
TABS,ioos:station:wmo:42044:1,2002-11-04T05:00:00Z,26.1914,-97.0507,2.0,161.3841411,9.022023055,-99999.0,'11133222,11111222,99999999' 
TABS,ioos:station:wmo:42044:1,2002-11-04T05:30:00Z,26.1914,-97.0507,2.0,161.9129697,13.01301272,-99999.0,'11111222,11111222,99999999' 
TABS,ioos:station:wmo:42044:1,2002-11-04T06:00:00Z,26.1914,-97.0507,2.0,166.8671567,13.68798743,-99999.0,'11111222,11111222,99999999' 
TABS,ioos:station:wmo:42044:1,2002-11-04T06:30:00Z,26.1914,-97.0507,2.0,162.3833374,13.28292137,-99999.0,'11111222,11111222,99999999' 
TABS,ioos:station:wmo:42044:1,2002-11-04T07:00:00Z,26.1914,-97.0507,2.0,164.3804339,15.45056633,-99999.0,'11111222,11111222,99999999' 
TABS,ioos:station:wmo:42044:1,2002-11-04T07:30:00Z,26.1914,-97.0507,2.0,157.7228313,17.22569302,-99999.0,'11111222,11111222,99999999' 
TABS,ioos:station:wmo:42044:1,2002-11-04T08:00:00Z,26.1914,-97.0507,2.0,158.9554679,17.98987771,-99999.0,'11111222,11111222,99999999' 
TABS,ioos:station:wmo:42044:1,2002-11-04T08:30:00Z,26.1914,-97.0507,2.0,156.7087956,18.71513024,-99999.0,'11111222,11111222,99999999' 
TABS,ioos:station:wmo:42044:1,2002-11-04T09:00:00Z,26.1914,-97.0507,2.0,163.0468055,23.35490741,-99999.0,'11111222,11111222,99999999' 
TABS,ioos:station:wmo:42044:1,2002-11-04T09:30:00Z,26.1914,-97.0507,2.0,155.5602613,32.55718815,-99999.0,'11111222,11111222,99999999' 
TABS,ioos:station:wmo:42044:1,2002-11-04T10:00:00Z,26.1914,-97.0507,2.0,155.5172423,39.25997708,-99999.0,'11111222,11111222,99999999' 
TABS,ioos:station:wmo:42044:1,2002-11-04T10:30:00Z,26.1914,-97.0507,2.0,156.9398421,41.2566019,-99999.0,'11111222,11111222,99999999' 
TABS,ioos:station:wmo:42044:1,2002-11-04T11:00:00Z,26.1914,-97.0507,2.0,155.8922254,40.88609054,-99999.0,'11111222,11111222,99999999' 
TABS,ioos:station:wmo:42044:1,2002-11-04T11:30:00Z,26.1914,-97.0507,2.0,153.9834819,44.36562295,-99999.0,'11111222,11111222,99999999' 
TABS,ioos:station:wmo:42044:1,2002-11-04T12:00:00Z,26.1914,-97.0507,2.0,160.2682902,46.11781651,-99999.0,'11111222,11111222,99999999' 
TABS,ioos:station:wmo:42044:1,2002-11-04T16:00:00Z,26.1914,-97.0507,2.0,166.7383789,54.883554,-99999.0,'11111222,11111222,99999999' 
TABS,ioos:station:wmo:42044:1,2002-11-04T16:30:00Z,26.1914,-97.0507,2.0,166.8711336,59.2588871,-99999.0,'11111222,11111222,99999999' 
TABS,ioos:station:wmo:42044:1,2002-11-04T17:00:00Z,26.1914,-97.0507,2.0,167.8983493,59.62499476,-99999.0,'11111222,11111222,99999999' 
TABS,ioos:station:wmo:42044:1,2002-11-04T17:30:00Z,26.1914,-97.0507,2.0,166.1703125,59.8242267,-99999.0,'11111222,11111222,99999999' 
TABS,ioos:station:wmo:42044:1,2002-11-04T18:00:00Z,26.1914,-97.0507,2.0,166.5677246,62.33512092,-99999.0,'11111222,11111222,99999999' 
TABS,ioos:station:wmo:42044:1,2002-11-04T18:30:00Z,26.1914,-97.0507,2.0,168.3263498,57.18273253,-99999.0,'11111222,11111222,99999999' 
TABS,ioos:station:wmo:42044:1,2002-11-04T19:00:00Z,26.1914,-97.0507,2.0,171.9650274,64.60419336,-99999.0,'11111222,11111222,99999999' 
TABS,ioos:station:wmo:42044:1,2002-11-04T19:30:00Z,26.1914,-97.0507,2.0,169.530277,67.5241653,-99999.0,'11111222,11111222,99999999' 